Cloud_Cover
89 100 83 100 99 91 96 100 98 93 8 4 2 1 1 5 23 16 5 0 2 13 2 0 28 86 92 80 28 15 93 100
46 86 99 100 100 84 46 11 12 5 5 0 0 1 5 5 5 5 5 5 10 5 12 5 9 95 100 100 100 98 100 100
89 100 100 100 100 76 81 74 69 3 0 0 0 0 1 5 5 7 14 5 6 70 6 36 0 0 2 78 100 100 100 100
18 51 27 5 5 4 4 2 0 0 0 0 0 0 0 0 1 5 5 5 5 8 5 5 5 0 0 2 5 85 100 100
5 5 3 4 0 0 4 0 0 0 2 0 0 0 0 0 0 0 4 5 53 80 49 5 0 0 0 0 0 0 14 100
4 5 2 2 0 0 0 2 3 5 5 5 74 44 0 0 0 47 55 48 99 99 99 67 22 37 8 0 0 0 2 3
0 0 0 1 0 2 3 5 5 4 5 4 5 19 69 33 1 1 9 92 100 100 100 100 100 100 50 4 1 0 0 0
0 0 0 1 2 2 1 5 5 4 5 2 2 0 9 100 98 5 4 0 5 13 97 100 100 100 100 100 43 12 1 0
5 53 9 5 5 5 5 1 4 3 0 0 0 0 0 0 8 22 33 6 14 5 13 64 99 100 100 100 100 100 100 32
1 0 5 4 5 4 0 0 0 0 0 0 0 0 5 5 5 72 100 72 94 98 85 100 100 99 100 100 100 100 100 100
5 4 3 0 5 5 4 1 0 0 1 4 5 5 5 54 5 9 100 100 100 100 90 88 99 100 100 100 80 48 60 94
4 0 4 5 5 2 4 5 4 5 5 5 5 5 5 5 58 10 10 100 78 99 100 100 100 100 100 88 92 63 37 5
5 6 5 5 5 13 48 35 5 50 71 63 29 8 17 14 5 29 56 95 100 100 100 100 100 100 100 100 100 98 31 14
5 2 8 100 100 100 100 100 100 100 100 100 100 100 94 90 87 91 96 100 100 100 72 100 87 96 100 100 100 100 99 98
60 24 5 98 100 100 100 100 100 100 100 100 100 100 100 100 100 100 100 99 100 100 91 100 100 100 99 100 100 100 100 100
13 90 100 100 100 94 100 100 100 100 100 100 100 100 100 100 100 100 100 100 100 82 93 100 100 100 100 100 100 100 100 100
99 99 100 100 100 100 100 100 100 100 100 100 100 100 100 100 100 96 92 45 50 36 54 100 99 100 100 96 100 100 100 100
100 100 100 100 100 100 100 100 100 100 100 93 56 16 5 5 5 14 12 27 59 37 20 24 52 95 100 100 100 100 100 100
100 100 100 100 100 100 100 100 100 50 11 5 5 5 5 5 5 5 6 11 8 7 10 16 22 98 100 100 91 100 100 100
100 100 100 100 100 100 100 100 54 7 5 5 5 5 5 5 5 5 5 5 5 5 5 64 29 93 100 100 100 99 100 100